Location: Unspecified
(54.1780°N, 0.0000°E)
Time: 10:36:17
(UTC+00:00)

Vanguard 2 - Pass Details

Date: 22 June 2019
Orbit: 553 x 2938 km, 32.9° (Epoch: 20 July)

Event Time Altitude Azimuth Distance (km) Brightness Sun altitude
Rises 09:59:56 0° 227° (SW) 3,618 11.0 51.7°
Reaches altitude 10° 10:03:17 10° 206° (SSW) 3,014 10.8 52.1°
Maximum altitude 10:07:46 17° 169° (S) 2,988 11.3 52.6°
Drops below altitude 10° 10:13:34 10° 135° (SE) 4,073 12.0 53.2°
Sets 10:19:21 0° 119° (ESE) 5,598 12.5 53.8°
